Location: Newark
(34.9500°N, 139.9667°E)
Time: 01:26:10
(UTC+00:00)

Transit 2A - Pass Details

Date: 15 December 2019
Orbit: 601 x 958 km, 66.7° (Epoch: 27 January)

Event Time Altitude Azimuth Distance (km) Brightness Sun altitude
Rises 18:59:23 0° 175° (S) 3,165 9.3 -32.2°
Reaches altitude 10° 19:02:14 10° 161° (SSE) 2,181 8.6 -31.6°
Maximum altitude 19:06:05 23° 110° (ESE) 1,415 8.0 -30.8°
Drops below altitude 10° 19:09:42 10° 57° (ENE) 2,042 8.8 -30.1°
Sets 19:12:16 0° 43° (NE) 2,915 9.4 -29.6°
